Location: Downe
(51.3167°N, 0.0500°E)
Time: 01:58:48
(UTC+00:00)

Cosmos 1408 Rocket - Pass Details

Date: 17 November 2019
Orbit: 602 x 630 km, 82.6° (Epoch: 08 December)

Event Time Altitude Azimuth Distance (km) Brightness Sun altitude
Rises 06:27:20 0° 219° (SW) 2,847 6.8 -8.3°
Reaches altitude 10° 06:29:46 10° 231° (SW) 1,952 5.8 -7.9°
Maximum altitude 06:33:31 28° 291° (WNW) 1,145 4.4 -7.4°
Drops below altitude 10° 06:37:19 10° 351° (N) 1,976 5.9 -6.8°
Sets 06:39:49 0° 3° (N) 2,890 6.8 -6.4°
